Snowfall_Accumulation
1.7 3.8 5.7 2.4 1.6 2.1 2.4 3.1 3.1 1.6 0.3 0.9 1.2 0.8 0.2 0.1 0.1 0.3 0.1 0.0 0.1 0.0 0.0 0.0 0.0 0.0 0.0 0.0 0.0 0.0 0.0 0.0 0.0 0.0 0.0 0.0 0.0 0.0 0.0 0.0 0.0 0.0 0.0 0.0
4.6 5.5 1.4 0.6 1.2 2.2 3.2 4.0 3.5 1.7 0.4 1.6 1.7 0.9 0.3 0.2 0.2 0.1 0.1 0.1 0.1 0.1 0.0 0.0 0.0 0.0 0.0 0.0 0.0 0.0 0.0 0.0 0.0 0.0 0.0 0.0 0.0 0.0 0.0 0.0 0.0 0.0 0.0 0.0
6.1 3.1 0.5 1.7 2.8 3.5 3.3 3.4 3.0 2.7 1.4 0.8 2.2 2.1 0.9 0.2 0.1 0.1 0.1 0.0 0.0 0.1 0.1 0.0 0.0 0.0 0.0 0.0 0.0 0.0 0.0 0.0 0.0 0.0 0.0 0.0 0.0 0.0 0.0 0.0 0.0 0.0 0.0 0.0
4.0 1.4 0.8 3.0 3.6 3.3 4.1 1.1 1.5 2.6 4.2 4.7 3.6 6.6 2.1 0.7 0.4 0.2 0.1 0.1 0.1 0.0 0.0 0.0 0.0 0.0 0.0 0.0 0.0 0.0 0.0 0.0 0.0 0.0 0.0 0.0 0.0 0.0 0.0 0.0 0.0 0.0 0.0 0.0
5.1 1.9 1.8 3.4 2.5 2.2 2.5 0.6 1.2 2.4 5.0 6.5 3.7 6.9 2.8 1.4 1.2 0.8 0.7 0.2 0.2 0.1 0.1 0.0 0.0 0.0 0.0 0.0 0.0 0.0 0.0 0.0 0.0 0.0 0.0 0.0 0.0 0.0 0.0 0.0 0.0 0.0 0.0 0.0
2.9 1.3 2.2 2.2 0.8 0.9 1.2 1.3 1.6 3.2 6.4 14.5 4.7 5.3 3.7 2.5 2.8 1.9 1.0 0.4 0.4 0.1 0.1 0.1 0.1 0.0 0.0 0.0 0.0 0.0 0.0 0.0 0.0 0.0 0.0 0.0 0.1 0.1 0.0 0.1 0.0 0.0 0.0 0.0
6.3 2.8 1.6 1.0 3.0 2.3 4.3 11.2 21.9 23.1 22.9 12.7 2.1 3.4 3.6 2.3 2.1 2.2 1.8 0.8 0.3 0.2 0.1 0.1 0.2 0.2 0.1 0.1 0.0 0.0 0.0 0.0 0.0 0.0 0.0 0.0 0.0 0.0 0.0 0.1 0.2 0.1 0.1 0.1
8.6 7.1 2.7 1.8 3.1 5.1 5.7 9.3 17.2 16.2 11.1 5.1 2.2 2.8 2.9 2.2 2.0 1.7 1.6 1.0 0.3 0.2 0.2 0.1 0.2 0.2 0.2 0.1 0.1 0.1 0.0 0.0 0.0 0.0 0.0 0.0 0.0 0.0 0.0 0.0 0.1 0.2 0.1 0.1
9.0 6.2 1.8 1.4 1.4 2.9 6.6 8.7 6.3 10.7 7.9 5.4 3.9 2.6 2.1 1.7 1.6 1.5 1.7 1.2 0.9 0.4 0.2 0.1 0.2 0.2 0.1 0.2 0.1 0.1 0.1 0.1 0.0 0.0 0.0 0.0 0.0 0.0 0.0 0.2 0.3 0.3 0.2 0.2
9.0 8.4 2.9 1.3 1.5 1.5 3.0 5.2 8.6 15.6 13.3 7.2 3.8 2.5 3.2 2.6 2.3 2.0 1.8 1.9 1.6 0.9 0.6 0.3 0.3 0.2 0.2 0.2 0.2 0.1 0.1 0.1 0.0 0.0 0.0 0.0 0.0 0.0 0.1 0.2 0.3 0.3 0.2 0.2
8.1 10.7 6.8 3.7 5.5 5.8 4.8 6.7 9.8 12.8 11.2 8.6 5.0 3.8 3.7 3.2 3.0 3.1 2.7 2.7 2.9 2.3 1.1 0.9 0.8 0.4 0.3 0.2 0.2 0.1 0.1 0.1 0.1 0.1 0.0 0.0 0.1 0.1 0.1 0.2 0.3 0.2 0.2 0.1
7.6 11.3 10.2 5.3 2.4 2.2 4.1 5.7 7.9 13.6 11.0 7.0 5.9 3.9 2.6 2.7 2.7 2.9 2.8 2.9 2.5 2.6 1.7 0.8 1.2 0.8 0.4 0.4 0.3 0.3 0.2 0.1 0.1 0.1 0.1 0.2 0.1 0.1 0.2 0.2 0.2 0.1 0.1 0.1
12.9 17.6 16.4 8.9 4.8 3.6 6.1 5.6 6.2 8.2 9.1 7.5 6.4 3.8 1.7 1.5 1.7 2.0 2.6 3.0 2.8 2.7 2.1 1.5 1.2 1.1 1.2 1.0 0.8 0.7 0.5 0.3 0.2 0.2 0.1 0.2 0.2 0.1 0.2 0.2 0.2 0.1 0.1 0.1
12.2 20.9 14.0 11.2 8.0 7.8 7.8 6.1 5.6 8.8 11.9 6.9 3.8 3.3 2.1 1.6 1.7 2.1 2.6 3.0 3.3 2.9 2.8 2.4 1.9 1.8 1.3 1.2 1.0 0.9 0.6 0.4 0.3 0.3 0.2 0.1 0.1 0.2 0.1 0.1 0.2 0.2 0.1 0.5
13.3 17.9 7.7 3.8 3.2 4.4 5.0 4.5 4.7 6.6 6.6 6.1 3.1 2.8 2.9 2.9 2.8 3.2 3.2 3.1 3.1 3.2 3.2 2.8 2.8 2.3 2.3 1.9 1.4 1.0 0.8 0.6 0.3 0.2 0.2 0.2 0.1 0.2 0.1 0.2 0.2 0.3 0.4 0.5
13.5 15.7 8.0 4.3 2.2 3.2 4.0 3.2 3.4 3.8 3.5 3.4 2.4 2.3 1.9 2.1 2.4 2.8 3.0 3.3 3.6 3.8 3.4 3.0 2.6 2.4 2.3 2.6 1.9 1.3 1.2 1.0 0.6 0.6 0.5 0.3 0.3 0.3 0.4 0.4 0.3 0.4 0.6 0.8
14.5 14.9 13.5 8.3 3.2 5.9 7.7 4.2 3.9 3.9 3.7 3.8 4.3 3.3 2.2 2.0 2.5 3.3 3.5 3.5 4.0 4.3 4.3 3.5 2.8 2.8 2.8 2.4 2.1 1.8 1.8 1.4 1.3 1.2 1.0 0.8 0.8 0.7 0.8 0.9 0.8 1.0 1.0 1.2
11.5 13.5 17.0 13.1 10.0 13.7 6.0 3.3 3.2 4.0 4.5 4.3 4.0 3.3 3.0 3.0 3.0 3.2 3.7 4.1 4.0 4.0 3.9 3.6 3.4 2.7 2.7 2.5 2.1 2.1 1.6 1.5 1.1 1.2 1.3 1.3 1.1 1.1 1.1 1.1 1.2 1.0 1.2 1.4
5.3 12.1 19.6 18.3 14.5 8.3 3.7 3.1 4.5 5.2 5.5 4.7 4.0 3.0 2.6 2.6 2.3 2.4 3.1 4.2 5.0 4.5 4.0 3.7 3.4 2.9 2.2 2.0 2.1 1.9 2.0 2.1 1.9 1.8 1.6 1.6 1.5 1.4 1.5 1.6 1.6 1.6 1.9 1.8
5.1 10.2 20.1 19.9 15.5 8.4 4.6 2.8 3.0 4.0 6.2 4.1 4.1 4.0 3.3 3.1 3.5 3.7 3.5 4.2 4.4 3.8 3.6 3.4 2.5 2.2 1.7 1.7 1.6 1.7 2.0 2.0 2.1 2.0 1.8 1.7 1.7 1.7 1.7 1.5 1.6 1.6 1.9 2.2
9.6 15.5 19.3 15.7 13.3 6.6 4.1 2.9 2.4 5.8 7.3 4.0 4.1 4.6 4.4 4.5 4.9 4.4 3.4 3.3 3.7 3.5 3.3 2.7 2.3 2.1 1.8 1.5 1.5 1.8 1.9 2.1 1.9 1.7 1.6 1.6 1.6 1.8 1.8 1.7 1.8 1.6 1.9 2.0
7.5 11.0 11.2 10.4 12.6 7.7 4.0 3.7 6.0 7.2 4.6 4.0 4.0 4.0 4.4 4.1 3.8 3.4 2.9 3.0 2.8 2.9 3.0 2.8 2.6 2.4 2.0 1.8 1.7 2.2 1.9 1.8 1.5 1.4 1.3 1.5 1.6 1.6 1.6 1.7 1.9 1.8 1.8 1.9
5.7 7.3 7.7 7.3 6.5 4.8 4.6 5.5 5.6 4.8 4.7 3.9 4.0 3.8 4.0 4.2 4.1 3.7 2.7 2.8 2.8 3.0 3.0 2.9 2.8 2.2 2.1 1.9 1.5 2.1 1.7 1.5 1.3 1.6 1.8 1.7 1.6 1.6 1.6 1.7 1.9 1.9 1.7 2.3
4.0 3.7 5.3 5.7 3.9 3.3 3.2 3.5 3.5 3.4 4.1 3.6 3.7 4.0 4.0 4.2 4.0 3.3 2.7 2.6 2.8 2.7 2.9 2.7 2.5 2.6 2.6 2.5 1.7 1.9 1.5 1.4 1.7 1.8 1.7 1.5 1.5 1.5 1.4 1.5 1.5 1.9 2.5 3.5
3.7 3.3 4.3 4.6 3.2 2.7 2.3 2.4 2.5 2.8 2.6 2.7 2.8 3.4 3.7 3.7 3.3 2.9 2.6 2.3 2.5 2.8 2.8 2.7 2.7 2.7 3.1 2.9 2.2 1.7 1.6 1.9 2.1 1.9 1.6 1.4 1.4 1.5 1.5 1.5 1.6 2.3 2.7 4.6
3.1 3.8 4.6 4.6 3.4 3.9 3.1 2.4 2.1 2.3 2.5 2.5 2.7 2.8 2.9 2.9 2.6 2.3 2.3 2.3 2.4 2.5 2.6 2.4 2.4 2.4 2.6 2.5 2.5 2.0 2.1 2.3 2.3 2.1 1.8 1.7 1.5 1.6 1.7 1.7 1.9 1.5 2.0 2.6